Precipitable_Water
0.40 0.40 0.41 0.40 0.39 0.41 0.39 0.39 0.41 0.40 0.40 0.39 0.38 0.37 0.37 0.37 0.39 0.41 0.42 0.41 0.41 0.42 0.45 0.46 0.47 0.48 0.48 0.50 0.55 0.61 0.64 0.55 0.49 0.44 0.40 0.40 0.43 0.47 0.44 0.39 0.36 0.43 0.66 0.76 0.84 0.80 0.78 0.85 0.85 1.03 0.96 0.99 0.98 1.01 1.44 1.61 1.68 1.56 1.20 1.11 0.95 1.03 0.98 1.10 1.03 1.10 1.18 1.14 1.22 1.33 1.43 1.36 1.26 1.47 1.56 1.67 1.54 1.53 1.52 1.52 1.60 1.66 1.60 1.62 1.59 1.65 1.69 1.72
0.39 0.40 0.40 0.39 0.40 0.40 0.39 0.39 0.39 0.39 0.38 0.38 0.37 0.36 0.37 0.38 0.40 0.42 0.43 0.43 0.41 0.41 0.43 0.47 0.48 0.48 0.49 0.48 0.52 0.59 0.59 0.53 0.44 0.46 0.39 0.45 0.44 0.44 0.44 0.45 0.39 0.41 0.65 0.66 0.58 0.61 0.63 0.72 0.78 0.89 0.88 0.79 1.07 0.89 1.35 1.33 1.62 1.31 1.18 1.12 0.91 1.05 1.09 1.24 1.21 1.23 1.16 1.13 1.24 1.32 1.42 1.39 1.33 1.43 1.54 1.34 1.33 1.39 1.36 1.43 1.50 1.46 1.53 1.62 1.62 1.61 1.62 1.64
0.39 0.39 0.40 0.41 0.40 0.40 0.39 0.39 0.38 0.39 0.38 0.37 0.36 0.37 0.39 0.41 0.42 0.43 0.43 0.43 0.42 0.43 0.44 0.46 0.49 0.49 0.48 0.50 0.52 0.56 0.52 0.43 0.45 0.38 0.45 0.54 0.47 0.44 0.44 0.46 0.42 0.47 0.55 0.47 0.52 0.50 0.52 0.63 0.75 0.80 0.84 0.71 0.87 0.82 1.13 1.22 1.40 1.36 1.19 0.98 1.02 1.18 1.19 1.26 1.27 1.24 1.28 1.27 1.23 1.29 1.35 1.36 1.42 1.44 1.57 1.31 1.28 1.34 1.24 1.25 1.34 1.34 1.35 1.45 1.53 1.57 1.58 1.58
0.41 0.40 0.40 0.38 0.39 0.39 0.39 0.38 0.39 0.38 0.36 0.35 0.35 0.35 0.38 0.41 0.42 0.42 0.42 0.43 0.42 0.44 0.45 0.47 0.49 0.49 0.49 0.49 0.53 0.53 0.46 0.38 0.35 0.42 0.62 0.74 0.65 0.52 0.44 0.46 0.43 0.54 0.63 0.60 0.54 0.45 0.54 0.65 0.69 0.68 0.68 0.66 0.73 0.92 0.87 1.16 1.13 1.28 1.17 1.01 1.05 1.22 1.14 1.20 1.29 1.29 1.30 1.32 1.24 1.27 1.36 1.30 1.40 1.46 1.43 1.34 1.24 1.23 1.27 1.37 1.30 1.29 1.34 1.44 1.51 1.52 1.54 1.52
0.40 0.39 0.38 0.38 0.37 0.37 0.37 0.36 0.35 0.35 0.34 0.35 0.35 0.35 0.39 0.40 0.41 0.42 0.43 0.43 0.43 0.43 0.45 0.47 0.49 0.50 0.48 0.51 0.52 0.53 0.36 0.29 0.34 0.49 0.70 0.69 0.69 0.61 0.50 0.45 0.44 0.55 0.64 0.59 0.57 0.49 0.50 0.57 0.66 0.65 0.58 0.51 0.66 0.79 0.85 1.07 1.23 1.24 1.04 1.16 1.21 1.24 1.12 1.25 1.30 1.33 1.30 1.35 1.29 1.28 1.20 1.22 1.47 1.45 1.38 1.33 1.14 1.13 1.25 1.38 1.45 1.45 1.47 1.48 1.48 1.49 1.51 1.47
0.40 0.40 0.39 0.38 0.38 0.37 0.36 0.35 0.35 0.34 0.34 0.33 0.33 0.36 0.38 0.40 0.42 0.42 0.41 0.41 0.42 0.44 0.44 0.47 0.50 0.49 0.51 0.51 0.51 0.45 0.28 0.16 0.42 0.49 0.72 0.65 0.66 0.63 0.57 0.48 0.48 0.54 0.65 0.52 0.42 0.39 0.41 0.49 0.53 0.51 0.50 0.50 0.54 0.60 0.75 0.99 1.22 0.90 1.08 1.20 1.26 1.30 1.18 1.28 1.28 1.32 1.32 1.26 1.23 1.19 1.27 1.37 1.32 1.30 1.40 1.37 1.24 1.31 1.48 1.52 1.52 1.51 1.55 1.58 1.59 1.52 1.45 1.42
0.43 0.41 0.40 0.38 0.37 0.38 0.36 0.34 0.34 0.33 0.33 0.31 0.32 0.34 0.38 0.40 0.40 0.41 0.40 0.40 0.41 0.43 0.46 0.50 0.50 0.50 0.50 0.51 0.45 0.36 0.23 0.21 0.34 0.49 0.56 0.72 0.68 0.64 0.60 0.52 0.52 0.47 0.60 0.46 0.40 0.32 0.32 0.38 0.43 0.46 0.47 0.48 0.56 0.62 0.75 0.89 1.10 1.01 0.92 1.15 1.18 1.31 1.23 1.33 1.30 1.34 1.32 1.28 1.21 1.31 1.39 1.24 1.27 1.13 1.40 1.31 1.42 1.46 1.51 1.59 1.60 1.60 1.62 1.64 1.52 1.48 1.41 1.39
0.41 0.40 0.39 0.38 0.37 0.36 0.37 0.35 0.33 0.32 0.32 0.30 0.31 0.35 0.38 0.38 0.38 0.38 0.38 0.39 0.39 0.43 0.47 0.48 0.51 0.52 0.53 0.41 0.26 0.21 0.23 0.18 0.37 0.62 0.67 0.76 0.72 0.69 0.63 0.57 0.43 0.42 0.52 0.40 0.34 0.28 0.29 0.30 0.32 0.47 0.43 0.42 0.54 0.61 0.76 0.86 0.97 0.84 0.91 1.10 1.17 1.24 1.27 1.33 1.34 1.31 1.32 1.31 1.35 1.32 1.21 1.19 1.27 1.25 1.35 1.26 1.41 1.49 1.53 1.62 1.63 1.61 1.57 1.57 1.50 1.45 1.44 1.41
0.43 0.42 0.41 0.39 0.37 0.36 0.35 0.34 0.32 0.32 0.30 0.30 0.30 0.34 0.36 0.36 0.35 0.35 0.36 0.38 0.39 0.44 0.47 0.48 0.47 0.50 0.55 0.42 0.23 0.15 0.13 0.25 0.50 0.63 0.72 0.78 0.77 0.74 0.62 0.49 0.41 0.36 0.43 0.45 0.39 0.31 0.26 0.27 0.31 0.39 0.37 0.44 0.62 0.58 0.75 0.78 0.73 0.88 0.93 1.12 1.14 1.16 1.23 1.27 1.25 1.25 1.24 1.26 1.30 1.22 1.15 1.22 1.30 1.43 1.25 1.33 1.44 1.52 1.60 1.58 1.60 1.61 1.49 1.46 1.45 1.42 1.40 1.38
0.44 0.42 0.41 0.40 0.37 0.36 0.35 0.34 0.33 0.32 0.30 0.30 0.30 0.32 0.34 0.34 0.33 0.33 0.34 0.37 0.38 0.46 0.47 0.48 0.52 0.51 0.43 0.32 0.28 0.12 0.25 0.55 0.56 0.64 0.72 0.81 0.81 0.74 0.63 0.47 0.37 0.36 0.39 0.43 0.41 0.35 0.24 0.25 0.23 0.40 0.47 0.45 0.64 0.60 0.73 0.77 0.71 0.89 0.99 1.10 1.10 1.14 1.17 1.22 1.16 1.19 1.23 1.21 1.25 1.14 1.11 1.14 1.30 1.28 1.06 1.38 1.49 1.55 1.54 1.52 1.57 1.55 1.47 1.42 1.41 1.41 1.41 1.37
0.44 0.43 0.42 0.40 0.39 0.36 0.35 0.35 0.34 0.32 0.31 0.31 0.31 0.31 0.32 0.32 0.32 0.32 0.34 0.36 0.40 0.47 0.49 0.50 0.52 0.48 0.29 0.32 0.18 0.11 0.37 0.49 0.55 0.60 0.69 0.75 0.75 0.68 0.57 0.47 0.36 0.33 0.35 0.42 0.39 0.36 0.29 0.26 0.30 0.37 0.38 0.39 0.54 0.59 0.67 0.74 0.87 0.89 0.94 1.02 1.07 1.19 1.19 1.15 1.14 1.14 1.18 1.13 1.24 1.20 1.10 1.17 1.22 1.22 1.11 1.28 1.44 1.51 1.45 1.46 1.48 1.50 1.48 1.41 1.38 1.39 1.42 1.40
0.44 0.43 0.43 0.42 0.39 0.36 0.36 0.36 0.35 0.33 0.32 0.33 0.32 0.31 0.32 0.32 0.32 0.32 0.35 0.37 0.44 0.48 0.50 0.53 0.54 0.45 0.36 0.26 0.18 0.14 0.28 0.37 0.50 0.51 0.56 0.65 0.65 0.71 0.65 0.53 0.37 0.33 0.32 0.31 0.37 0.40 0.35 0.30 0.32 0.30 0.17 0.43 0.41 0.57 0.59 0.77 0.77 0.81 0.88 0.80 0.95 1.04 1.02 1.07 1.04 1.08 1.13 1.08 1.20 1.24 1.10 1.01 1.07 0.99 1.20 1.34 1.44 1.45 1.41 1.40 1.42 1.43 1.46 1.42 1.37 1.38 1.40 1.39
0.45 0.44 0.44 0.44 0.41 0.38 0.36 0.36 0.36 0.34 0.34 0.33 0.32 0.32 0.33 0.32 0.32 0.35 0.37 0.41 0.46 0.49 0.53 0.55 0.51 0.44 0.30 0.16 0.21 0.31 0.37 0.36 0.40 0.49 0.58 0.61 0.65 0.76 0.69 0.60 0.45 0.39 0.35 0.30 0.31 0.40 0.42 0.36 0.31 0.24 0.31 0.34 0.38 0.36 0.55 0.61 0.67 0.74 0.78 0.79 0.84 0.87 0.87 1.01 1.08 1.08 1.06 1.09 1.16 1.18 0.77 0.85 0.97 1.09 1.23 1.38 1.41 1.44 1.36 1.35 1.39 1.40 1.42 1.41 1.36 1.33 1.37 1.43
0.46 0.45 0.45 0.45 0.44 0.40 0.38 0.37 0.37 0.36 0.35 0.34 0.33 0.32 0.33 0.32 0.34 0.37 0.43 0.44 0.47 0.51 0.52 0.52 0.47 0.43 0.31 0.18 0.31 0.41 0.48 0.49 0.56 0.50 0.48 0.56 0.60 0.67 0.66 0.60 0.51 0.43 0.42 0.35 0.35 0.41 0.46 0.44 0.35 0.27 0.34 0.30 0.33 0.48 0.47 0.52 0.56 0.53 0.64 0.76 0.72 0.73 0.72 0.96 1.00 1.05 0.98 1.12 1.12 1.14 0.76 0.82 0.97 1.09 1.24 1.36 1.41 1.36 1.29 1.32 1.36 1.38 1.38 1.39 1.37 1.32 1.33 1.39
0.45 0.45 0.45 0.45 0.44 0.41 0.38 0.38 0.37 0.37 0.37 0.35 0.32 0.32 0.33 0.32 0.37 0.42 0.48 0.47 0.49 0.48 0.50 0.52 0.53 0.38 0.24 0.23 0.45 0.49 0.56 0.68 0.46 0.39 0.48 0.43 0.53 0.61 0.59 0.56 0.48 0.44 0.43 0.41 0.37 0.37 0.45 0.44 0.40 0.28 0.22 0.32 0.41 0.40 0.37 0.46 0.51 0.54 0.53 0.52 0.66 0.67 0.73 0.88 0.98 0.98 0.87 1.03 1.12 1.04 0.78 0.81 0.95 1.06 1.22 1.33 1.37 1.35 1.26 1.28 1.31 1.35 1.36 1.37 1.37 1.33 1.31 1.35
0.44 0.44 0.45 0.46 0.45 0.41 0.38 0.38 0.37 0.37 0.36 0.35 0.31 0.31 0.33 0.36 0.40 0.48 0.51 0.47 0.47 0.48 0.56 0.47 0.44 0.39 0.22 0.22 0.26 0.53 0.46 0.29 0.31 0.38 0.45 0.39 0.44 0.51 0.66 0.52 0.48 0.45 0.45 0.41 0.43 0.38 0.38 0.40 0.30 0.28 0.24 0.25 0.26 0.31 0.32 0.37 0.45 0.50 0.48 0.47 0.51 0.63 0.70 0.78 0.88 0.95 0.97 0.97 1.05 0.97 0.78 0.87 0.91 1.09 1.22 1.32 1.33 1.33 1.26 1.25 1.27 1.30 1.35 1.37 1.35 1.33 1.31 1.33
0.42 0.43 0.45 0.46 0.46 0.42 0.39 0.39 0.38 0.37 0.35 0.32 0.30 0.28 0.33 0.39 0.41 0.50 0.52 0.48 0.46 0.57 0.56 0.40 0.47 0.45 0.13 0.29 0.42 0.30 0.26 0.28 0.33 0.36 0.39 0.38 0.37 0.46 0.62 0.59 0.46 0.42 0.45 0.43 0.40 0.36 0.33 0.31 0.32 0.29 0.27 0.21 0.22 0.27 0.27 0.27 0.34 0.41 0.48 0.44 0.51 0.54 0.66 0.65 0.82 0.88 0.94 0.93 0.87 0.99 0.86 0.86 0.97 1.07 1.18 1.28 1.31 1.29 1.24 1.23 1.25 1.29 1.33 1.36 1.35 1.33 1.31 1.28
0.42 0.42 0.44 0.47 0.45 0.41 0.39 0.39 0.38 0.36 0.35 0.31 0.29 0.28 0.28 0.38 0.46 0.58 0.49 0.41 0.48 0.58 0.56 0.57 0.48 0.30 0.19 0.26 0.17 0.20 0.29 0.28 0.28 0.34 0.37 0.38 0.38 0.42 0.56 0.55 0.53 0.46 0.43 0.37 0.39 0.30 0.31 0.24 0.27 0.18 0.20 0.19 0.21 0.22 0.21 0.17 0.25 0.34 0.39 0.40 0.44 0.53 0.61 0.64 0.67 0.79 0.85 0.90 0.83 0.88 0.86 0.86 0.94 1.05 1.13 1.20 1.28 1.25 1.22 1.23 1.23 1.25 1.29 1.35 1.36 1.31 1.29 1.27
0.40 0.41 0.44 0.46 0.44 0.40 0.39 0.39 0.37 0.36 0.35 0.32 0.29 0.33 0.33 0.39 0.44 0.51 0.29 0.21 0.24 0.21 0.16 0.21 0.22 0.12 0.11 0.19 0.26 0.27 0.27 0.28 0.29 0.31 0.33 0.40 0.43 0.46 0.58 0.62 0.56 0.44 0.36 0.32 0.30 0.29 0.29 0.24 0.23 0.18 0.13 0.14 0.14 0.18 0.20 0.27 0.31 0.36 0.42 0.43 0.45 0.45 0.52 0.58 0.70 0.78 0.83 0.80 0.78 0.80 0.76 0.80 0.87 0.97 1.06 1.17 1.24 1.21 1.22 1.27 1.26 1.27 1.30 1.33 1.37 1.33 1.27 1.23
0.36 0.39 0.41 0.44 0.43 0.39 0.38 0.38 0.36 0.34 0.36 0.31 0.27 0.24 0.24 0.17 0.15 0.13 0.19 0.18 0.17 0.18 0.21 0.24 0.26 0.24 0.25 0.24 0.22 0.26 0.29 0.29 0.24 0.27 0.32 0.38 0.43 0.44 0.51 0.53 0.51 0.47 0.36 0.28 0.29 0.28 0.29 0.19 0.15 0.12 0.11 0.12 0.15 0.22 0.26 0.31 0.33 0.37 0.44 0.45 0.45 0.46 0.52 0.63 0.71 0.78 0.83 0.76 0.73 0.76 0.79 0.80 0.83 0.89 0.99 1.10 1.21 1.22 1.24 1.22 1.23 1.25 1.27 1.28 1.33 1.33 1.27 1.22
0.35 0.37 0.39 0.43 0.43 0.38 0.38 0.37 0.35 0.34 0.35 0.32 0.27 0.20 0.16 0.18 0.11 0.09 0.15 0.14 0.17 0.24 0.24 0.26 0.26 0.24 0.22 0.25 0.27 0.25 0.21 0.21 0.25 0.27 0.30 0.38 0.43 0.43 0.42 0.45 0.41 0.35 0.37 0.34 0.30 0.34 0.29 0.19 0.16 0.14 0.14 0.16 0.18 0.22 0.27 0.29 0.34 0.34 0.37 0.39 0.42 0.47 0.45 0.57 0.64 0.77 0.81 0.70 0.66 0.76 0.77 0.77 0.81 0.88 0.96 1.10 1.16 1.14 1.17 1.19 1.20 1.24 1.27 1.28 1.29 1.30 1.26 1.22
0.34 0.34 0.36 0.41 0.41 0.38 0.38 0.37 0.35 0.34 0.35 0.32 0.25 0.22 0.25 0.28 0.31 0.30 0.21 0.10 0.12 0.24 0.26 0.27 0.29 0.27 0.28 0.27 0.29 0.28 0.27 0.19 0.19 0.26 0.34 0.34 0.33 0.34 0.39 0.39 0.34 0.29 0.38 0.37 0.33 0.28 0.23 0.18 0.17 0.18 0.18 0.18 0.20 0.23 0.26 0.27 0.28 0.34 0.34 0.36 0.37 0.40 0.47 0.57 0.62 0.73 0.76 0.70 0.61 0.69 0.70 0.72 0.79 0.85 0.98 1.05 1.09 1.14 1.19 1.19 1.18 1.21 1.23 1.26 1.28 1.28 1.30 1.27
0.33 0.34 0.34 0.39 0.40 0.37 0.39 0.37 0.35 0.35 0.31 0.27 0.24 0.25 0.26 0.35 0.40 0.33 0.24 0.16 0.12 0.19 0.26 0.26 0.23 0.26 0.25 0.27 0.30 0.30 0.22 0.19 0.17 0.23 0.30 0.35 0.32 0.34 0.40 0.36 0.34 0.33 0.35 0.35 0.27 0.26 0.21 0.20 0.22 0.23 0.21 0.17 0.16 0.21 0.24 0.26 0.29 0.30 0.32 0.32 0.30 0.39 0.41 0.40 0.55 0.66 0.71 0.67 0.59 0.62 0.62 0.67 0.78 0.89 0.96 1.06 1.09 1.12 1.20 1.23 1.22 1.23 1.18 1.20 1.22 1.25 1.25 1.22
0.32 0.32 0.34 0.37 0.39 0.37 0.39 0.37 0.36 0.33 0.30 0.29 0.28 0.27 0.35 0.40 0.40 0.31 0.19 0.11 0.09 0.17 0.24 0.26 0.24 0.26 0.21 0.21 0.28 0.27 0.23 0.22 0.22 0.21 0.32 0.34 0.28 0.34 0.36 0.38 0.34 0.34 0.29 0.31 0.29 0.26 0.23 0.28 0.31 0.27 0.24 0.19 0.15 0.17 0.21 0.23 0.23 0.28 0.30 0.30 0.31 0.35 0.39 0.43 0.50 0.59 0.65 0.66 0.65 0.61 0.56 0.58 0.69 0.73 0.83 1.01 1.16 1.17 1.20 1.24 1.25 1.28 1.27 1.26 1.29 1.34 1.33 1.26
0.31 0.31 0.33 0.37 0.37 0.39 0.37 0.37 0.28 0.29 0.34 0.30 0.28 0.35 0.39 0.43 0.41 0.33 0.18 0.13 0.13 0.15 0.27 0.27 0.24 0.23 0.21 0.28 0.28 0.25 0.26 0.27 0.24 0.26 0.31 0.34 0.32 0.28 0.28 0.42 0.39 0.31 0.32 0.33 0.30 0.28 0.28 0.33 0.37 0.28 0.24 0.21 0.17 0.16 0.18 0.23 0.22 0.25 0.29 0.30 0.31 0.36 0.39 0.44 0.51 0.54 0.54 0.53 0.58 0.54 0.42 0.42 0.58 0.66 0.72 0.87 1.03 1.05 1.16 1.17 1.17 1.20 1.24 1.29 1.27 1.27 1.31 1.32
0.30 0.30 0.33 0.37 0.38 0.38 0.38 0.25 0.26 0.33 0.30 0.24 0.29 0.38 0.41 0.45 0.44 0.35 0.21 0.10 0.07 0.14 0.19 0.13 0.23 0.18 0.25 0.19 0.23 0.24 0.28 0.22 0.27 0.27 0.31 0.35 0.38 0.33 0.30 0.31 0.40 0.30 0.35 0.34 0.30 0.29 0.28 0.36 0.36 0.31 0.24 0.22 0.19 0.16 0.19 0.22 0.20 0.21 0.19 0.30 0.32 0.35 0.39 0.43 0.45 0.49 0.46 0.42 0.52 0.58 0.41 0.35 0.55 0.58 0.68 0.81 0.88 0.93 1.08 1.10 1.12 1.17 1.22 1.25 1.24 1.25 1.26 1.27
0.30 0.30 0.34 0.38 0.39 0.42 0.27 0.22 0.36 0.36 0.24 0.27 0.36 0.40 0.42 0.43 0.46 0.33 0.14 0.10 0.07 0.17 0.14 0.20 0.19 0.19 0.24 0.20 0.22 0.20 0.12 0.18 0.28 0.30 0.30 0.35 0.33 0.39 0.27 0.28 0.34 0.40 0.43 0.42 0.35 0.26 0.31 0.33 0.36 0.36 0.31 0.23 0.20 0.16 0.19 0.22 0.21 0.17 0.23 0.30 0.33 0.35 0.36 0.40 0.44 0.46 0.46 0.53 0.53 0.53 0.49 0.40 0.41 0.52 0.69 0.77 0.79 0.86 0.96 1.02 1.07 1.14 1.19 1.21 1.22 1.24 1.25 1.26
0.30 0.31 0.36 0.40 0.42 0.44 0.35 0.39 0.37 0.29 0.31 0.38 0.42 0.41 0.44 0.42 0.36 0.31 0.14 0.05 0.05 0.20 0.15 0.19 0.20 0.26 0.23 0.22 0.25 0.19 0.19 0.26 0.21 0.26 0.32 0.36 0.37 0.33 0.31 0.28 0.30 0.35 0.41 0.41 0.25 0.32 0.33 0.29 0.33 0.34 0.32 0.28 0.21 0.18 0.19 0.23 0.21 0.22 0.28 0.31 0.31 0.32 0.35 0.39 0.42 0.44 0.46 0.45 0.40 0.48 0.51 0.39 0.37 0.49 0.64 0.72 0.72 0.80 0.86 0.93 1.00 1.07 1.14 1.18 1.20 1.22 1.25 1.28
0.30 0.34 0.39 0.42 0.46 0.48 0.49 0.42 0.39 0.33 0.40 0.44 0.45 0.46 0.45 0.41 0.30 0.18 0.11 0.05 0.20 0.17 0.27 0.17 0.26 0.23 0.21 0.22 0.19 0.21 0.22 0.27 0.19 0.27 0.35 0.37 0.39 0.33 0.27 0.31 0.33 0.35 0.37 0.40 0.33 0.37 0.37 0.35 0.36 0.36 0.34 0.29 0.29 0.28 0.24 0.23 0.21 0.29 0.34 0.33 0.29 0.31 0.32 0.35 0.39 0.42 0.45 0.41 0.33 0.42 0.48 0.37 0.33 0.45 0.53 0.65 0.64 0.67 0.77 0.89 0.97 1.04 1.08 1.13 1.17 1.21 1.24 1.28
0.30 0.35 0.43 0.45 0.47 0.45 0.44 0.48 0.41 0.46 0.49 0.49 0.48 0.48 0.43 0.33 0.24 0.13 0.09 0.06 0.20 0.12 0.18 0.19 0.17 0.16 0.20 0.15 0.15 0.18 0.19 0.22 0.25 0.27 0.32 0.33 0.36 0.34 0.34 0.41 0.35 0.34 0.34 0.36 0.34 0.39 0.41 0.47 0.46 0.39 0.32 0.35 0.38 0.37 0.34 0.28 0.25 0.33 0.34 0.31 0.28 0.28 0.27 0.31 0.33 0.37 0.39 0.32 0.31 0.41 0.48 0.44 0.30 0.38 0.46 0.51 0.53 0.63 0.74 0.85 0.95 1.03 1.08 1.12 1.17 1.19 1.22 1.26
0.30 0.35 0.44 0.49 0.42 0.45 0.45 0.36 0.43 0.51 0.51 0.50 0.49 0.42 0.33 0.26 0.17 0.12 0.08 0.11 0.18 0.17 0.20 0.18 0.16 0.20 0.15 0.13 0.12 0.16 0.18 0.22 0.23 0.25 0.24 0.31 0.31 0.33 0.32 0.31 0.40 0.34 0.35 0.35 0.32 0.35 0.38 0.42 0.42 0.42 0.45 0.42 0.41 0.39 0.42 0.41 0.35 0.32 0.31 0.28 0.28 0.25 0.27 0.24 0.25 0.31 0.28 0.24 0.33 0.40 0.45 0.47 0.31 0.30 0.45 0.54 0.59 0.65 0.71 0.75 0.83 0.92 0.99 1.06 1.14 1.19 1.22 1.24
0.30 0.35 0.46 0.49 0.53 0.56 0.39 0.39 0.50 0.55 0.52 0.51 0.45 0.34 0.25 0.15 0.19 0.11 0.10 0.25 0.12 0.16 0.16 0.16 0.18 0.17 0.15 0.17 0.15 0.14 0.13 0.20 0.23 0.24 0.23 0.26 0.28 0.29 0.30 0.25 0.31 0.26 0.26 0.29 0.28 0.35 0.31 0.33 0.41 0.44 0.49 0.45 0.41 0.35 0.37 0.41 0.40 0.37 0.33 0.31 0.22 0.18 0.19 0.15 0.19 0.16 0.20 0.21 0.31 0.38 0.44 0.41 0.35 0.33 0.42 0.49 0.56 0.63 0.69 0.74 0.80 0.87 0.92 0.99 1.08 1.16 1.20 1.22
0.33 0.37 0.45 0.54 0.57 0.51 0.51 0.55 0.59 0.55 0.51 0.47 0.36 0.31 0.20 0.14 0.09 0.16 0.15 0.18 0.13 0.19 0.17 0.20 0.18 0.18 0.17 0.16 0.15 0.16 0.18 0.14 0.22 0.23 0.26 0.29 0.28 0.31 0.36 0.32 0.32 0.32 0.23 0.29 0.28 0.29 0.28 0.34 0.36 0.40 0.46 0.49 0.46 0.34 0.30 0.31 0.36 0.36 0.33 0.29 0.23 0.17 0.15 0.12 0.14 0.16 0.19 0.27 0.34 0.38 0.44 0.36 0.37 0.37 0.44 0.45 0.52 0.60 0.66 0.73 0.82 0.88 0.91 0.95 1.02 1.11 1.18 1.21
0.37 0.41 0.41 0.53 0.55 0.57 0.57 0.59 0.58 0.56 0.47 0.41 0.31 0.24 0.18 0.12 0.11 0.21 0.16 0.17 0.16 0.20 0.20 0.18 0.19 0.19 0.18 0.14 0.18 0.19 0.12 0.18 0.18 0.22 0.25 0.23 0.27 0.26 0.31 0.35 0.34 0.30 0.33 0.32 0.26 0.29 0.22 0.23 0.30 0.34 0.32 0.48 0.47 0.44 0.39 0.31 0.32 0.35 0.39 0.33 0.25 0.21 0.17 0.13 0.14 0.11 0.12 0.20 0.28 0.40 0.36 0.31 0.30 0.30 0.42 0.45 0.52 0.59 0.65 0.70 0.78 0.87 0.94 1.00 1.04 1.09 1.14 1.18
0.44 0.44 0.47 0.56 0.57 0.59 0.58 0.59 0.59 0.57 0.48 0.36 0.26 0.20 0.12 0.12 0.16 0.15 0.15 0.17 0.19 0.20 0.18 0.20 0.17 0.16 0.16 0.17 0.19 0.21 0.19 0.14 0.19 0.21 0.23 0.24 0.23 0.27 0.28 0.32 0.36 0.34 0.34 0.28 0.31 0.31 0.28 0.25 0.31 0.40 0.40 0.46 0.46 0.51 0.53 0.47 0.38 0.34 0.37 0.40 0.31 0.24 0.28 0.19 0.20 0.17 0.16 0.17 0.20 0.28 0.31 0.37 0.34 0.41 0.44 0.49 0.52 0.56 0.62 0.66 0.73 0.79 0.89 0.98 1.05 1.08 1.12 1.15
0.46 0.46 0.54 0.50 0.52 0.56 0.60 0.61 0.60 0.57 0.45 0.32 0.22 0.17 0.14 0.17 0.15 0.19 0.17 0.21 0.20 0.18 0.19 0.20 0.19 0.15 0.16 0.16 0.19 0.17 0.22 0.18 0.17 0.18 0.21 0.27 0.28 0.27 0.34 0.35 0.36 0.36 0.32 0.29 0.32 0.27 0.29 0.24 0.35 0.38 0.40 0.41 0.45 0.53 0.52 0.54 0.33 0.36 0.36 0.30 0.30 0.37 0.35 0.26 0.25 0.27 0.23 0.18 0.14 0.23 0.28 0.33 0.37 0.37 0.39 0.43 0.47 0.49 0.55 0.60 0.67 0.74 0.82 0.91 0.95 0.99 1.05 1.11
0.45 0.50 0.46 0.52 0.53 0.60 0.62 0.63 0.61 0.54 0.44 0.30 0.20 0.15 0.20 0.21 0.23 0.21 0.22 0.21 0.21 0.21 0.20 0.15 0.16 0.16 0.14 0.14 0.15 0.16 0.17 0.21 0.17 0.16 0.14 0.25 0.25 0.31 0.32 0.35 0.41 0.39 0.36 0.36 0.33 0.39 0.27 0.25 0.36 0.35 0.32 0.42 0.49 0.53 0.54 0.55 0.52 0.45 0.32 0.31 0.42 0.46 0.40 0.30 0.18 0.20 0.18 0.13 0.13 0.18 0.19 0.26 0.27 0.23 0.37 0.38 0.40 0.43 0.47 0.52 0.60 0.67 0.77 0.83 0.86 0.91 0.98 1.05
0.48 0.48 0.53 0.53 0.57 0.62 0.63 0.61 0.56 0.49 0.40 0.28 0.18 0.20 0.28 0.19 0.26 0.25 0.26 0.24 0.23 0.23 0.20 0.18 0.19 0.21 0.16 0.16 0.15 0.17 0.18 0.15 0.17 0.15 0.13 0.21 0.22 0.38 0.32 0.34 0.41 0.39 0.39 0.39 0.34 0.33 0.36 0.25 0.32 0.38 0.37 0.40 0.47 0.48 0.49 0.56 0.58 0.48 0.38 0.45 0.35 0.30 0.27 0.31 0.27 0.16 0.14 0.13 0.14 0.16 0.20 0.23 0.25 0.24 0.30 0.33 0.35 0.38 0.43 0.49 0.56 0.62 0.70 0.76 0.82 0.87 0.93 1.00
0.51 0.49 0.42 0.54 0.62 0.63 0.61 0.59 0.52 0.41 0.33 0.23 0.19 0.18 0.24 0.24 0.30 0.29 0.29 0.27 0.26 0.23 0.20 0.22 0.19 0.22 0.21 0.18 0.19 0.20 0.19 0.14 0.19 0.16 0.13 0.20 0.17 0.35 0.33 0.37 0.35 0.40 0.40 0.39 0.34 0.36 0.38 0.27 0.28 0.40 0.37 0.40 0.40 0.42 0.34 0.43 0.54 0.56 0.55 0.47 0.49 0.39 0.29 0.26 0.26 0.23 0.24 0.16 0.15 0.12 0.17 0.16 0.23 0.26 0.28 0.29 0.34 0.37 0.40 0.46 0.51 0.56 0.63 0.70 0.77 0.83 0.88 0.93
0.49 0.44 0.44 0.61 0.63 0.62 0.60 0.54 0.42 0.36 0.28 0.20 0.22 0.22 0.31 0.27 0.31 0.33 0.32 0.28 0.26 0.25 0.24 0.23 0.25 0.21 0.22 0.21 0.22 0.19 0.21 0.19 0.18 0.18 0.18 0.21 0.18 0.35 0.31 0.39 0.33 0.36 0.39 0.39 0.36 0.40 0.33 0.40 0.25 0.34 0.39 0.38 0.30 0.35 0.34 0.41 0.42 0.46 0.46 0.44 0.45 0.40 0.42 0.40 0.34 0.28 0.23 0.19 0.16 0.13 0.11 0.13 0.20 0.28 0.28 0.29 0.30 0.35 0.38 0.40 0.44 0.50 0.57 0.65 0.72 0.78 0.84 0.89
0.57 0.47 0.48 0.63 0.63 0.62 0.57 0.45 0.35 0.29 0.25 0.28 0.29 0.28 0.31 0.31 0.34 0.33 0.34 0.34 0.31 0.33 0.28 0.27 0.26 0.23 0.23 0.22 0.21 0.25 0.20 0.20 0.20 0.18 0.20 0.21 0.20 0.16 0.34 0.34 0.36 0.33 0.38 0.36 0.36 0.38 0.34 0.34 0.27 0.31 0.31 0.29 0.31 0.39 0.41 0.45 0.50 0.48 0.46 0.42 0.43 0.37 0.32 0.30 0.27 0.36 0.31 0.25 0.19 0.17 0.11 0.16 0.20 0.27 0.29 0.29 0.30 0.32 0.36 0.38 0.40 0.45 0.52 0.60 0.67 0.73 0.80 0.84
0.49 0.39 0.46 0.65 0.65 0.61 0.47 0.35 0.34 0.35 0.29 0.26 0.26 0.32 0.30 0.39 0.35 0.35 0.36 0.37 0.35 0.32 0.36 0.32 0.31 0.29 0.28 0.27 0.28 0.26 0.23 0.19 0.21 0.20 0.23 0.19 0.26 0.21 0.28 0.35 0.36 0.37 0.35 0.31 0.33 0.41 0.42 0.40 0.33 0.28 0.31 0.30 0.33 0.40 0.45 0.48 0.50 0.51 0.50 0.45 0.46 0.43 0.39 0.33 0.24 0.27 0.32 0.31 0.29 0.23 0.18 0.16 0.25 0.27 0.27 0.28 0.29 0.30 0.33 0.37 0.38 0.41 0.47 0.54 0.61 0.65 0.73 0.79
0.50 0.44 0.62 0.66 0.67 0.58 0.44 0.35 0.36 0.31 0.28 0.33 0.40 0.38 0.40 0.38 0.37 0.39 0.36 0.37 0.33 0.37 0.34 0.33 0.32 0.31 0.32 0.30 0.30 0.27 0.25 0.20 0.22 0.20 0.24 0.24 0.23 0.27 0.30 0.30 0.35 0.35 0.37 0.35 0.39 0.40 0.52 0.38 0.30 0.30 0.34 0.35 0.37 0.42 0.46 0.49 0.50 0.48 0.49 0.50 0.47 0.40 0.39 0.34 0.31 0.33 0.29 0.28 0.26 0.22 0.18 0.17 0.24 0.27 0.26 0.25 0.26 0.29 0.31 0.34 0.36 0.39 0.42 0.47 0.53 0.58 0.63 0.67
0.54 0.53 0.57 0.67 0.67 0.58 0.40 0.29 0.26 0.28 0.32 0.36 0.37 0.37 0.43 0.40 0.38 0.36 0.36 0.39 0.36 0.36 0.35 0.35 0.36 0.37 0.33 0.36 0.33 0.27 0.29 0.18 0.29 0.23 0.21 0.26 0.24 0.35 0.30 0.29 0.32 0.32 0.34 0.34 0.34 0.48 0.35 0.39 0.33 0.26 0.26 0.28 0.30 0.35 0.41 0.47 0.48 0.45 0.45 0.47 0.48 0.46 0.43 0.39 0.36 0.36 0.28 0.27 0.25 0.22 0.14 0.14 0.21 0.29 0.29 0.27 0.26 0.26 0.27 0.29 0.33 0.35 0.38 0.42 0.46 0.52 0.57 0.58
0.58 0.63 0.61 0.61 0.64 0.55 0.39 0.41 0.33 0.30 0.31 0.32 0.34 0.34 0.36 0.38 0.42 0.41 0.40 0.39 0.43 0.43 0.41 0.38 0.40 0.40 0.38 0.38 0.34 0.32 0.31 0.26 0.22 0.28 0.26 0.28 0.26 0.34 0.33 0.30 0.32 0.28 0.39 0.45 0.46 0.55 0.43 0.40 0.34 0.25 0.21 0.21 0.21 0.22 0.27 0.32 0.38 0.44 0.47 0.47 0.48 0.45 0.42 0.37 0.30 0.30 0.24 0.24 0.26 0.21 0.17 0.19 0.24 0.26 0.26 0.27 0.27 0.26 0.28 0.28 0.29 0.31 0.34 0.37 0.42 0.47 0.53 0.56
0.51 0.42 0.53 0.55 0.57 0.53 0.49 0.50 0.42 0.35 0.32 0.33 0.31 0.35 0.37 0.34 0.40 0.45 0.45 0.42 0.45 0.45 0.45 0.44 0.43 0.42 0.38 0.36 0.32 0.30 0.28 0.34 0.27 0.24 0.25 0.23 0.27 0.30 0.33 0.33 0.30 0.29 0.34 0.49 0.51 0.48 0.40 0.40 0.36 0.32 0.29 0.27 0.29 0.33 0.38 0.42 0.41 0.37 0.41 0.45 0.45 0.46 0.45 0.41 0.37 0.30 0.23 0.24 0.23 0.22 0.21 0.17 0.23 0.24 0.24 0.26 0.26 0.25 0.26 0.27 0.27 0.27 0.27 0.28 0.32 0.38 0.44 0.51
0.60 0.48 0.48 0.44 0.51 0.49 0.44 0.45 0.40 0.39 0.33 0.39 0.30 0.35 0.31 0.35 0.38 0.40 0.48 0.37 0.45 0.43 0.42 0.41 0.40 0.36 0.36 0.35 0.31 0.29 0.30 0.28 0.32 0.28 0.25 0.24 0.27 0.30 0.35 0.32 0.32 0.31 0.34 0.38 0.49 0.46 0.39 0.34 0.36 0.35 0.34 0.35 0.38 0.38 0.40 0.41 0.38 0.39 0.40 0.41 0.45 0.44 0.43 0.39 0.33 0.26 0.30 0.26 0.20 0.25 0.24 0.19 0.18 0.23 0.26 0.27 0.28 0.28 0.29 0.29 0.30 0.29 0.28 0.27 0.27 0.31 0.36 0.42
0.48 0.55 0.59 0.59 0.45 0.39 0.39 0.37 0.42 0.38 0.41 0.42 0.35 0.39 0.33 0.33 0.35 0.33 0.41 0.45 0.47 0.46 0.38 0.40 0.41 0.40 0.39 0.35 0.34 0.27 0.28 0.28 0.28 0.24 0.27 0.28 0.27 0.29 0.28 0.33 0.30 0.32 0.35 0.32 0.43 0.41 0.37 0.32 0.36 0.36 0.34 0.38 0.41 0.41 0.42 0.41 0.41 0.40 0.40 0.42 0.42 0.44 0.44 0.38 0.34 0.34 0.33 0.24 0.19 0.25 0.25 0.20 0.18 0.20 0.25 0.27 0.28 0.28 0.29 0.30 0.31 0.32 0.31 0.30 0.29 0.29 0.31 0.35
0.63 0.61 0.60 0.65 0.48 0.49 0.45 0.44 0.45 0.41 0.39 0.40 0.37 0.36 0.32 0.33 0.33 0.39 0.39 0.38 0.41 0.40 0.42 0.33 0.36 0.39 0.39 0.39 0.35 0.29 0.29 0.24 0.23 0.28 0.27 0.26 0.27 0.27 0.24 0.28 0.31 0.37 0.34 0.30 0.31 0.42 0.38 0.33 0.36 0.37 0.35 0.36 0.39 0.41 0.42 0.40 0.40 0.41 0.40 0.41 0.44 0.46 0.44 0.45 0.41 0.39 0.35 0.30 0.30 0.27 0.24 0.22 0.22 0.23 0.27 0.30 0.32 0.32 0.33 0.34 0.35 0.33 0.32 0.31 0.30 0.29 0.31 0.35
0.57 0.55 0.52 0.62 0.57 0.51 0.49 0.47 0.44 0.42 0.37 0.40 0.31 0.35 0.35 0.35 0.34 0.38 0.42 0.40 0.35 0.38 0.45 0.37 0.38 0.40 0.40 0.38 0.36 0.30 0.31 0.32 0.30 0.25 0.30 0.29 0.27 0.29 0.25 0.25 0.26 0.35 0.34 0.27 0.28 0.38 0.37 0.31 0.41 0.40 0.35 0.34 0.38 0.41 0.42 0.41 0.40 0.38 0.40 0.42 0.46 0.52 0.52 0.51 0.48 0.43 0.41 0.36 0.33 0.28 0.24 0.22 0.26 0.35 0.35 0.46 0.47 0.44 0.42 0.40 0.38 0.37 0.35 0.34 0.32 0.31 0.36 0.39
0.71 0.74 0.68 0.54 0.46 0.48 0.49 0.45 0.41 0.40 0.37 0.38 0.33 0.36 0.36 0.37 0.36 0.40 0.39 0.45 0.41 0.38 0.41 0.38 0.41 0.40 0.40 0.38 0.36 0.33 0.36 0.35 0.34 0.33 0.34 0.32 0.25 0.30 0.27 0.27 0.32 0.27 0.30 0.28 0.27 0.32 0.41 0.35 0.43 0.40 0.33 0.31 0.37 0.38 0.39 0.40 0.40 0.40 0.41 0.44 0.51 0.55 0.50 0.51 0.43 0.46 0.38 0.32 0.30 0.28 0.24 0.21 0.29 0.42 0.47 0.53 0.51 0.47 0.45 0.46 0.46 0.46 0.44 0.39 0.35 0.35 0.40 0.42
0.78 0.80 0.75 0.61 0.45 0.50 0.42 0.44 0.44 0.41 0.34 0.39 0.38 0.39 0.36 0.36 0.40 0.43 0.36 0.43 0.46 0.47 0.45 0.43 0.42 0.39 0.36 0.35 0.32 0.34 0.38 0.37 0.37 0.37 0.38 0.37 0.38 0.35 0.34 0.33 0.33 0.29 0.28 0.26 0.30 0.27 0.37 0.37 0.35 0.37 0.32 0.30 0.36 0.39 0.38 0.39 0.39 0.35 0.38 0.47 0.54 0.61 0.63 0.65 0.64 0.61 0.55 0.51 0.33 0.26 0.23 0.37 0.50 0.57 0.51 0.51 0.51 0.52 0.52 0.53 0.53 0.54 0.55 0.46 0.41 0.39 0.41 0.41
Wind_Speed
18 18 18 19 19 19 19 19 19 19 18 18 18 18 18 17 17 17 17 16 16 15 15 15 14 14 13 13 13 12 11 11 10 10 11 12 13 15 14 14 16 18 17 17 18 18 18 17 17 16 16 15 14 13 14 14 12 10 9 9 8 8 7 7 7 6 5 6 6 9 10 8 6 5 5 5 5 7 7 4 5 5 5 8 10 13 16 16
18 19 19 19 19 19 19 19 19 19 19 19 18 18 18 18 18 18 17 17 17 16 16 15 15 14 14 13 13 12 12 11 11 11 13 12 11 14 16 16 16 19 19 18 20 19 18 18 17 17 16 15 14 14 14 14 13 12 10 10 9 9 8 7 7 6 5 7 8 9 9 8 6 6 6 5 5 7 6 4 6 6 7 9 12 15 16 16
19 20 20 20 20 20 20 20 20 20 20 19 19 19 19 18 18 18 18 18 17 16 16 16 15 15 14 13 13 12 12 12 12 12 13 12 13 14 16 17 17 19 19 19 21 21 20 19 18 18 16 15 14 15 14 14 13 13 11 11 11 10 9 7 8 7 6 8 8 8 8 7 7 7 7 6 6 7 6 6 7 7 10 12 13 15 16 17
20 21 21 21 21 21 21 21 21 20 20 20 20 19 19 19 19 18 18 18 17 17 17 16 16 15 14 13 12 12 11 12 11 11 10 9 12 14 16 17 18 19 19 19 20 20 20 20 19 18 16 15 15 15 15 15 13 12 12 12 12 10 10 9 9 8 6 8 8 8 8 7 8 8 7 8 7 5 6 8 9 9 12 13 14 15 17 17
21 21 21 21 22 22 22 21 21 21 21 21 20 20 20 20 19 19 18 18 18 17 17 16 16 15 14 13 12 11 11 10 10 10 9 9 10 13 16 18 19 20 19 18 19 20 20 20 19 17 16 14 15 15 15 16 14 12 13 14 13 11 10 10 9 8 7 8 8 8 8 7 8 8 8 9 7 5 6 9 10 10 12 14 15 15 17 17
21 22 22 22 22 22 22 22 22 22 21 21 20 20 20 20 20 19 19 18 18 18 17 16 16 15 15 14 13 12 11 10 10 10 10 10 10 12 16 18 19 20 19 19 20 20 21 21 19 18 16 15 16 15 14 16 16 13 13 14 15 13 12 11 9 9 8 8 8 8 8 7 8 7 8 10 7 4 5 8 9 10 12 14 15 16 16 18
22 23 23 23 23 23 23 22 22 22 22 21 21 20 20 20 20 20 19 19 19 18 17 16 15 15 14 14 14 13 13 13 12 12 12 11 10 11 15 18 18 19 19 19 20 21 21 22 21 18 17 15 16 16 13 15 16 14 13 15 15 15 15 14 12 10 9 9 9 8 8 8 9 7 7 9 7 4 5 8 9 10 12 14 15 16 16 18
23 23 23 23 23 23 23 23 23 22 22 21 21 21 20 20 20 19 19 19 19 17 16 15 14 14 14 14 14 14 14 16 14 13 13 13 12 11 15 18 19 20 20 20 21 21 21 22 22 19 17 16 16 17 15 14 15 15 15 15 14 16 16 16 14 13 12 11 9 10 10 10 10 7 7 9 7 6 7 8 10 11 12 13 15 16 17 17
23 24 24 24 24 24 23 23 23 23 22 22 21 21 21 20 20 19 19 19 18 17 16 15 15 14 14 15 14 15 16 16 14 12 12 13 13 13 16 18 20 21 20 20 21 21 21 22 23 20 18 18 17 17 17 15 14 15 16 15 14 16 16 15 15 15 15 13 11 11 10 10 10 7 7 9 8 7 8 9 10 12 12 13 15 16 17 18
24 24 24 24 24 24 24 24 23 23 23 22 22 22 21 21 20 20 20 19 19 18 17 16 16 15 15 15 14 15 16 15 13 12 11 12 13 14 16 19 21 21 21 20 20 21 21 21 23 21 18 19 18 17 18 17 14 14 15 15 16 18 17 16 16 16 15 14 14 13 11 10 11 9 8 9 9 9 10 11 12 12 13 14 15 15 17 18
25 25 25 25 25 25 25 24 24 24 23 23 23 23 22 22 21 21 20 20 19 18 17 17 17 16 16 16 16 16 17 16 15 13 12 13 14 15 18 20 22 22 21 21 21 22 21 21 23 20 18 19 19 18 18 19 16 15 14 15 17 18 18 18 18 17 15 14 16 15 10 9 11 11 9 9 11 10 11 11 12 13 13 14 15 15 16 17
25 25 25 25 26 25 25 25 25 24 24 24 24 23 23 23 22 22 21 20 19 18 18 17 17 18 17 17 19 19 17 18 18 17 16 16 15 16 18 21 22 22 22 21 22 22 21 21 23 22 19 19 19 18 18 20 19 17 16 15 16 16 16 17 17 17 15 14 16 14 10 10 12 12 10 10 12 11 11 12 13 13 13 14 15 15 15 16
26 26 26 26 26 26 26 25 25 25 24 24 24 24 24 23 23 22 20 19 18 18 18 18 18 18 17 18 19 19 19 20 19 18 17 17 17 16 18 22 22 21 21 21 22 22 21 21 23 23 20 18 19 18 17 19 20 19 17 16 15 15 16 16 16 16 16 15 16 14 12 12 13 12 11 12 13 12 11 12 12 13 13 14 14 15 15 16
27 27 27 27 27 27 27 26 25 25 25 24 25 25 24 23 23 21 19 18 18 18 18 18 18 17 17 19 19 18 19 19 18 17 15 16 17 17 18 22 23 21 21 19 20 21 21 20 22 23 21 20 20 18 17 17 19 19 17 16 16 15 16 16 15 16 15 14 17 16 14 13 13 12 13 13 14 13 12 12 13 13 13 14 15 15 15 17
28 28 28 28 28 28 27 27 26 26 25 25 25 25 24 23 21 19 18 18 19 19 18 18 17 16 18 19 18 18 19 18 18 17 16 16 18 19 19 22 24 23 21 19 18 21 22 20 21 22 21 21 20 19 17 17 18 19 18 17 17 16 16 16 15 16 16 14 17 16 14 13 12 13 14 14 15 14 13 13 13 13 14 15 15 15 15 16
29 29 29 29 28 28 27 27 26 26 26 26 26 25 24 22 20 18 18 19 20 19 17 17 17 17 18 19 19 18 19 20 20 20 19 18 19 21 21 22 24 24 22 20 18 19 22 21 20 22 21 22 21 20 18 18 19 19 19 18 17 18 18 16 15 17 17 15 16 16 14 12 12 13 14 15 15 15 13 14 14 14 15 15 15 15 15 15
30 30 30 30 29 28 28 27 27 26 26 27 26 25 23 21 20 18 18 20 19 18 17 17 17 17 18 18 19 19 20 21 22 21 21 20 22 23 22 22 23 24 23 21 19 18 21 21 20 21 21 22 22 20 20 21 21 19 19 19 18 18 19 17 15 16 17 15 16 17 15 13 12 13 15 16 16 15 14 15 14 14 14 15 15 15 15 16
31 32 31 30 30 29 28 27 27 27 27 27 26 24 22 20 19 18 19 21 20 18 17 17 17 16 18 19 19 21 22 23 23 23 22 21 22 24 24 23 23 24 23 22 21 20 21 22 21 21 22 23 23 23 23 22 22 21 19 19 18 18 20 19 17 16 17 17 17 17 17 15 13 14 16 17 17 16 15 16 15 14 15 15 15 15 16 17
32 32 32 31 30 29 28 27 27 27 26 26 25 22 20 20 19 18 20 22 19 18 18 18 17 16 19 21 21 22 22 22 23 23 23 21 22 25 25 24 24 25 24 23 23 23 22 21 22 23 24 25 25 25 24 21 20 21 20 20 20 20 20 21 19 17 16 16 17 17 18 17 14 15 17 17 18 17 15 15 15 15 15 15 15 15 16 17
33 33 33 32 31 30 29 27 27 27 26 25 23 22 21 21 20 19 21 22 19 19 20 20 19 18 21 22 21 21 20 20 20 22 23 22 23 25 26 25 25 25 25 24 24 24 24 23 25 26 25 25 25 25 25 23 20 20 20 20 21 21 21 21 20 19 17 17 17 18 18 18 17 17 18 18 19 17 16 16 16 16 16 16 16 16 17 17
34 34 33 33 31 30 29 28 27 27 25 23 22 21 20 21 21 21 22 22 22 21 21 21 20 20 21 22 21 20 19 19 20 21 23 23 24 26 28 27 27 27 26 25 24 25 26 27 28 26 23 23 24 24 25 25 24 21 20 19 20 21 21 22 21 20 19 18 18 18 18 19 18 18 18 19 19 18 18 18 17 17 17 17 17 17 17 16
34 34 34 33 31 30 28 27 27 26 24 22 21 20 20 21 21 22 22 23 24 23 21 22 21 21 22 22 21 19 18 20 21 21 22 23 26 28 29 29 28 28 27 26 26 26 28 29 28 24 23 23 24 24 25 26 26 24 21 20 20 20 20 21 22 21 19 19 18 18 19 19 19 19 19 20 21 20 21 20 19 19 18 18 18 18 17 17
34 35 34 33 31 29 28 27 26 25 23 22 22 21 21 22 22 22 21 22 24 24 22 21 21 22 22 21 20 19 18 20 22 23 22 23 26 28 29 30 30 28 28 30 30 29 29 28 25 24 24 25 25 25 25 26 26 26 24 23 21 20 19 20 21 21 21 20 19 17 18 18 18 19 20 22 23 22 22 22 21 20 20 20 20 19 18 18
35 35 34 34 31 29 27 26 25 24 23 23 22 22 22 23 23 22 21 21 22 23 22 21 21 22 22 22 21 19 19 20 22 24 23 23 26 28 29 30 30 30 31 32 32 32 30 25 22 25 26 26 26 26 25 25 25 26 27 25 23 21 20 20 19 19 19 20 19 18 17 18 19 20 21 22 23 22 22 22 20 20 20 20 19 19 19 19
35 35 35 33 30 28 27 24 23 24 24 23 23 24 24 24 23 21 20 20 21 22 21 21 21 21 22 22 21 20 21 21 22 24 24 24 26 28 29 30 31 31 31 32 32 32 32 26 22 25 28 28 28 27 26 26 25 26 27 27 25 23 21 20 19 19 18 18 18 18 18 18 19 21 21 21 23 23 22 22 22 22 21 19 19 20 20 19
35 36 35 33 29 27 25 22 23 24 24 23 24 25 25 25 23 20 19 19 20 21 20 20 20 20 21 21 21 21 21 21 22 24 24 24 26 29 29 29 31 32 31 30 31 32 31 28 25 25 27 29 29 28 27 26 25 25 26 25 25 24 23 21 20 20 19 19 19 18 18 18 18 20 21 21 23 24 23 22 24 23 21 20 20 21 21 20
36 36 35 31 27 25 22 21 23 23 22 24 26 26 26 24 21 19 19 18 19 19 19 20 20 20 21 21 21 19 19 22 22 22 22 24 26 29 31 30 30 30 30 30 31 32 31 30 29 27 26 27 30 30 28 26 26 24 22 23 25 25 25 24 23 22 21 21 21 20 19 19 19 20 21 21 23 24 24 24 24 23 23 23 22 21 22 22
35 35 33 29 25 22 20 21 23 23 24 26 27 27 26 23 19 18 17 17 18 17 18 19 20 20 20 20 18 17 19 21 21 22 23 24 25 28 31 31 30 30 30 32 33 31 30 31 32 30 27 27 28 29 27 28 27 23 20 22 25 26 26 25 24 24 23 21 24 23 20 19 20 21 20 21 23 24 25 25 24 24 24 24 24 23 23 23
34 33 29 26 24 22 22 22 23 24 26 26 26 25 23 19 17 16 15 16 16 16 17 18 19 20 20 19 17 17 19 19 21 23 23 23 24 27 30 30 31 31 31 33 33 31 29 30 32 31 30 28 26 25 26 29 28 23 20 19 20 23 25 25 25 25 24 24 27 26 23 20 21 22 22 22 23 24 23 23 23 24 26 26 25 24 24 23
33 31 28 26 24 23 23 24 24 26 26 25 24 23 18 15 15 14 14 15 15 15 17 17 18 20 20 19 18 19 19 20 21 22 21 21 21 23 28 29 29 30 31 31 33 32 30 29 31 32 32 29 26 24 25 29 28 25 23 21 19 20 22 24 25 24 24 26 28 28 25 22 21 23 24 23 23 23 22 22 22 24 26 26 26 25 24 24
32 31 29 26 23 24 24 24 25 26 25 23 22 19 15 14 13 12 13 14 14 16 16 16 17 18 18 17 18 20 20 20 21 20 20 21 20 20 25 28 28 29 31 31 32 32 30 30 30 30 31 30 28 26 26 27 27 26 25 24 23 21 21 23 24 25 26 26 26 26 26 25 24 24 25 24 23 24 23 23 23 23 25 26 26 26 25 25
32 31 29 25 23 23 23 23 25 25 23 22 21 17 13 13 13 12 14 14 14 15 15 15 16 16 17 16 16 18 19 20 20 20 20 20 20 20 23 26 29 30 32 32 32 31 32 32 31 29 30 31 30 29 28 26 27 28 27 25 24 23 22 23 24 25 26 25 24 24 23 25 26 26 26 25 24 25 24 24 24 24 24 25 26 27 26 25
33 31 27 23 22 22 22 23 24 24 22 21 18 14 12 12 13 13 14 14 14 15 15 16 17 16 17 16 16 17 18 19 19 19 20 19 20 20 21 24 27 30 31 30 30 31 31 32 33 32 30 31 32 32 31 29 28 29 29 28 27 24 23 24 23 23 24 23 24 24 23 24 24 24 28 28 26 25 25 25 25 25 26 26 26 27 26 26
33 30 25 22 22 22 23 24 24 23 22 20 17 13 11 12 12 12 13 14 15 15 16 17 17 17 17 16 16 16 16 18 19 19 20 20 20 21 21 22 23 27 30 29 29 30 30 31 33 33 31 30 32 33 32 30 29 29 29 28 29 27 24 23 22 23 23 22 23 24 24 23 22 22 26 27 27 27 27 27 26 27 27 26 26 26 27 27
32 27 23 22 22 22 24 24 23 22 21 18 15 12 11 12 13 13 14 15 15 16 17 18 17 17 17 17 17 17 16 18 18 19 20 20 20 21 21 21 22 25 29 29 29 29 31 32 31 31 31 30 30 31 30 29 29 30 28 29 31 29 25 22 22 23 22 21 22 25 25 23 20 21 22 24 26 27 28 27 27 27 27 25 25 26 27 27
29 24 22 22 23 24 25 25 24 22 19 16 13 12 12 12 13 14 14 16 16 16 18 19 18 18 18 18 18 18 17 18 18 18 20 20 20 20 20 21 21 23 26 29 29 28 30 33 31 29 31 31 28 28 30 31 30 28 30 32 30 28 26 25 23 21 21 22 23 25 25 23 20 20 21 22 24 26 27 26 26 27 26 25 25 26 27 28
26 23 21 23 25 26 27 26 23 20 17 14 12 12 13 13 14 15 16 17 17 17 17 18 19 18 19 19 18 19 18 18 18 17 19 21 21 20 21 21 20 22 25 27 30 29 29 32 32 30 31 32 30 29 31 33 30 28 30 31 27 25 26 27 24 22 22 23 23 23 26 24 21 21 21 22 23 25 26 25 25 26 26 26 25 25 26 29
25 22 21 24 27 27 26 24 20 17 15 13 13 13 13 14 15 17 18 19 18 17 17 18 18 18 19 19 20 20 19 18 18 17 18 20 21 21 21 22 21 22 25 27 29 30 29 30 32 31 31 31 31 31 31 32 32 30 28 28 27 26 27 28 26 24 23 23 21 22 24 25 24 22 21 23 24 25 25 25 24 25 25 26 26 25 26 28
24 21 21 25 28 27 25 21 17 14 14 13 13 14 14 15 17 18 19 19 18 18 18 18 18 18 19 19 20 21 19 19 18 17 18 19 20 21 21 22 23 22 25 27 28 30 29 29 31 31 30 29 31 33 32 32 32 31 28 28 29 28 27 28 27 25 23 22 21 21 22 24 25 23 22 24 24 24 25 25 24 24 25 25 26 25 25 27
23 20 21 25 28 26 23 18 15 14 14 14 14 15 16 17 17 19 20 19 18 18 18 18 18 18 19 20 20 21 20 20 19 18 18 18 19 20 20 21 23 23 25 27 28 30 30 29 31 31 29 29 30 32 33 31 30 31 31 29 30 29 27 27 27 26 25 22 21 20 21 23 23 22 23 24 24 24 25 24 24 25 25 26 26 26 26 26
22 20 21 25 27 25 21 16 16 16 14 14 15 16 17 17 18 20 20 19 18 18 18 18 18 18 19 19 19 19 19 19 19 18 18 18 18 19 19 20 22 23 24 26 27 29 30 30 31 31 30 30 31 31 31 30 29 30 31 30 30 30 27 26 26 27 27 25 22 21 21 22 22 21 22 23 23 23 25 25 24 25 26 27 26 26 26 26
22 20 21 25 26 24 18 16 16 16 14 15 16 16 18 18 18 19 20 19 18 18 18 18 18 18 17 17 16 16 16 17 18 18 18 18 18 18 19 19 21 23 24 25 27 29 30 30 31 32 32 33 34 32 31 32 32 31 30 29 29 29 28 28 27 26 27 27 25 23 22 23 22 21 21 22 21 22 24 25 25 25 27 27 27 27 27 27
21 20 21 24 26 22 17 15 16 15 14 16 17 17 17 17 17 17 18 19 18 18 18 18 18 17 15 14 13 13 14 15 16 17 17 18 18 18 18 18 20 22 23 25 27 28 29 30 31 31 32 32 33 31 29 29 30 31 30 29 28 29 29 29 28 26 26 26 26 24 24 24 22 20 20 20 19 20 22 24 25 25 26 27 28 28 28 27
21 20 20 23 25 20 16 15 15 14 15 16 16 16 16 16 16 17 17 18 19 19 19 18 16 14 12 12 12 12 12 14 15 16 16 17 17 17 17 17 18 20 23 25 26 27 28 30 30 29 28 29 30 29 28 27 28 30 30 30 30 29 27 28 28 26 27 28 27 25 25 22 20 19 19 19 18 19 21 23 25 25 26 27 27 28 28 28
21 19 19 22 23 20 16 15 14 14 15 16 16 16 16 16 16 18 18 18 18 19 18 16 14 12 12 12 12 11 12 13 14 15 15 16 16 16 17 17 17 19 22 25 26 28 29 30 30 30 30 30 29 28 28 28 28 30 31 31 30 28 26 27 27 27 28 29 28 27 25 21 19 19 19 19 20 20 21 22 24 25 26 27 27 28 29 29
20 19 19 21 21 19 17 16 15 15 15 16 16 16 16 16 17 17 17 17 17 16 14 13 11 11 11 12 12 12 12 12 13 14 14 15 16 16 17 17 17 18 21 23 25 27 30 31 32 32 33 33 30 28 28 29 29 30 30 31 30 29 28 27 28 29 29 27 28 29 26 22 22 22 21 21 22 22 21 20 21 24 26 26 26 28 30 31
19 19 19 19 18 18 18 17 17 16 16 16 15 15 16 16 16 16 16 15 15 13 11 10 9 9 10 11 12 12 12 12 13 14 15 15 15 16 17 17 18 18 19 21 24 28 30 31 32 33 35 35 32 30 30 30 30 31 31 32 32 30 29 29 31 30 27 26 28 28 25 24 25 24 23 23 23 22 22 21 21 23 24 25 26 26 29 33
19 18 18 18 17 17 17 17 18 17 17 16 14 15 16 15 15 15 14 13 12 10 9 9 9 9 10 10 10 11 11 11 12 13 14 14 15 15 16 17 18 18 17 18 23 28 31 31 32 33 34 35 34 32 31 31 31 31 32 32 32 32 31 32 33 32 30 29 28 25 25 26 25 22 21 21 22 22 23 23 23 24 25 25 26 27 29 33
18 18 17 17 16 16 16 17 17 17 17 16 15 15 16 15 15 14 13 12 10 8 7 8 9 10 10 10 9 10 10 11 12 13 13 14 15 16 16 17 18 17 17 17 21 27 31 31 32 32 33 34 35 33 31 31 32 32 32 32 32 32 33 34 34 34 33 32 29 25 25 27 24 20 18 19 20 21 22 22 22 23 24 25 26 27 29 32
18 17 17 17 16 16 16 16 16 16 16 16 15 15 16 15 15 14 12 10 9 8 7 8 9 10 10 10 10 10 11 12 13 14 14 15 16 16 16 17 17 17 17 17 19 25 30 31 30 31 32 33 34 33 32 31 31 32 32 32 30 31 32 33 33 33 33 32 31 28 27 26 22 19 18 19 18 18 20 20 20 21 22 23 24 26 28 30
17 17 17 16 16 16 16 15 15 15 15 15 15 16 17 16 15 14 12 9 8 8 7 8 10 10 10 10 10 11 12 13 15 16 17 18 18 17 18 18 17 18 19 19 19 23 29 31 30 30 30 31 32 32 31 31 31 31 31 30 30 28 28 29 30 30 31 31 30 28 27 25 22 20 20 19 17 16 17 17 17 18 18 21 24 25 26 28
17 17 17 16 16 16 16 16 15 15 15 16 17 18 17 16 15 13 10 8 7 7 8 9 10 10 9 10 11 12 14 16 17 19 19 20 21 21 21 21 20 20 20 20 20 23 28 31 30 30 30 30 31 31 30 30 30 30 30 29 29 28 26 27 27 27 29 30 29 29 28 25 23 22 21 19 17 17 17 16 15 15 16 19 23 24 25 27
Wind_Direction
324 324 323 322 321 320 319 318 317 316 314 313 312 311 309 308 306 305 304 302 301 299 297 296 294 292 288 284 280 277 276 272 269 263 254 251 240 230 223 215 210 208 206 199 194 194 195 198 198 197 200 202 208 210 207 211 210 209 209 203 204 200 195 190 186 184 178 178 175 171 170 167 171 173 169 166 158 164 175 183 174 175 171 166 163 162 164 166
323 322 322 321 320 319 318 317 316 315 314 313 312 310 309 307 305 304 302 300 298 297 294 293 291 289 287 283 279 275 273 270 267 259 253 251 242 231 223 217 210 205 203 199 197 194 195 198 198 198 201 204 209 209 208 211 211 211 210 205 206 201 197 192 189 193 183 176 176 176 179 182 181 177 178 176 172 178 182 177 165 156 155 159 160 163 165 166
322 321 320 319 319 317 316 315 314 313 312 312 310 309 308 306 305 303 301 299 297 295 292 290 288 286 284 282 277 273 270 269 266 257 256 254 240 230 220 215 210 205 205 203 200 197 197 197 197 198 201 206 209 209 210 212 212 213 211 209 210 207 207 210 204 207 196 174 172 178 184 188 183 178 181 174 173 188 189 173 162 156 159 161 164 167 168 168
322 321 320 319 318 316 315 314 313 312 311 310 309 307 306 305 304 302 300 298 296 293 290 288 286 282 280 279 275 271 269 268 263 252 255 257 239 226 217 212 207 205 207 207 203 200 198 196 197 198 201 208 211 211 213 213 211 211 211 209 208 205 208 220 213 209 200 179 177 179 183 189 183 179 178 166 165 194 201 185 175 165 164 166 168 171 171 171
323 322 320 319 317 316 315 313 312 311 310 309 307 305 304 303 301 299 299 297 295 292 288 286 283 281 277 275 272 268 267 264 258 250 252 256 242 226 216 211 207 205 205 206 204 201 199 198 199 201 205 210 210 212 216 216 214 213 214 212 212 206 206 219 217 211 202 184 181 181 187 189 181 183 182 173 174 196 200 188 180 171 168 169 172 174 174 174
323 322 321 319 318 316 315 313 312 311 309 307 305 304 303 301 300 298 296 295 294 291 287 284 281 278 274 270 267 264 259 254 256 255 257 256 245 229 215 208 206 206 205 204 203 202 200 199 200 203 208 212 210 212 216 215 217 218 217 214 215 213 212 218 219 218 206 189 189 189 194 186 180 194 192 186 190 198 191 178 173 172 171 172 174 176 177 176
324 323 321 320 318 316 315 313 312 310 309 307 304 303 301 300 299 296 294 294 293 289 286 282 278 275 271 267 264 262 255 253 260 261 260 254 243 230 213 207 206 205 206 205 203 203 203 201 202 204 208 213 214 214 215 213 217 222 219 214 214 214 217 221 223 228 219 205 204 196 196 193 191 198 195 197 200 194 183 173 171 170 171 174 176 178 180 179
326 324 322 321 319 317 315 314 312 310 309 306 304 302 301 300 298 295 293 292 292 288 283 280 277 274 270 265 262 261 256 253 260 263 259 249 240 229 210 206 206 205 206 207 205 204 204 203 205 206 210 215 215 213 214 212 216 222 220 215 214 214 217 221 222 226 225 221 215 200 200 203 199 192 192 199 198 188 176 169 171 170 170 176 178 178 180 181
327 325 324 322 320 318 316 315 312 310 309 306 304 303 301 300 297 295 292 292 290 284 281 279 276 275 270 264 261 261 255 249 254 262 258 245 237 228 213 208 207 205 206 208 208 206 205 205 207 208 212 215 214 213 214 215 216 219 219 218 220 218 218 220 220 221 223 222 214 205 207 207 198 193 201 199 192 186 175 170 172 172 173 177 180 180 181 182
327 326 324 322 321 319 317 315 313 310 309 306 304 302 301 300 297 295 293 291 288 281 277 276 275 275 271 264 257 255 252 244 250 259 255 244 235 226 217 211 207 206 206 208 209 208 208 209 208 209 213 215 216 215 213 216 219 218 218 222 225 223 222 223 224 223 221 219 212 207 211 209 196 198 210 197 188 183 173 172 175 176 179 179 181 183 183 185
327 326 324 322 320 319 317 315 313 310 308 306 304 301 300 300 298 295 294 290 287 280 274 272 272 273 272 264 252 250 250 243 248 257 254 247 236 226 219 213 208 207 207 209 211 211 211 211 208 210 217 216 216 218 217 219 223 225 223 224 222 221 223 222 222 223 218 216 211 207 210 207 199 205 211 193 186 184 175 175 178 181 183 182 182 183 185 187
327 326 324 322 320 318 317 314 312 310 308 305 302 300 300 299 298 296 294 290 285 280 274 271 270 272 272 262 252 251 252 250 251 257 255 248 240 230 221 214 211 209 208 210 213 213 212 211 208 211 217 216 213 217 221 221 223 228 227 226 223 221 224 220 217 218 214 213 208 204 211 210 205 211 207 193 188 185 181 180 182 184 184 184 184 185 186 188
327 325 324 322 321 319 317 315 313 310 307 305 301 300 300 298 297 296 293 288 284 280 275 272 272 273 268 260 256 255 256 254 253 255 253 246 238 231 222 215 212 212 211 212 215 215 213 212 210 211 216 216 214 217 222 221 221 224 223 223 224 225 226 218 213 213 211 211 202 200 216 217 214 215 204 194 190 186 185 186 186 187 186 185 186 187 188 189
327 325 323 322 320 319 317 315 313 311 308 305 302 301 300 298 297 295 290 285 282 279 276 275 274 271 265 260 259 260 256 250 249 252 250 241 233 228 223 216 213 214 214 215 217 216 215 215 212 215 219 218 220 224 224 222 220 219 219 220 221 223 224 216 212 208 209 212 200 202 222 223 221 218 204 196 193 190 191 192 189 189 189 187 189 190 191 192
326 324 323 321 319 318 316 315 313 311 308 305 304 302 300 298 295 291 286 284 282 280 278 277 274 270 267 262 260 260 254 247 251 252 247 242 233 228 223 217 214 214 215 217 220 217 216 216 215 217 221 220 221 225 224 223 223 219 218 221 220 220 222 218 215 208 208 213 204 206 223 225 225 219 206 200 196 194 194 194 192 191 191 190 191 193 194 195
325 324 322 320 318 317 316 314 312 310 308 306 304 302 299 296 293 288 283 283 283 280 279 276 274 269 264 262 262 262 254 250 255 251 246 243 236 230 223 217 217 215 216 219 221 218 215 218 219 219 221 220 218 219 221 223 224 221 219 221 219 217 219 220 220 214 208 211 211 213 221 224 225 215 206 203 199 197 197 196 194 193 194 193 193 195 196 196
325 324 322 320 318 317 315 313 312 310 309 307 304 301 298 294 290 285 283 287 285 279 278 276 275 266 258 264 265 263 261 256 254 249 246 242 235 230 223 219 219 216 216 220 221 217 215 218 221 221 220 219 217 214 220 224 222 221 220 221 221 217 217 218 221 219 211 210 215 220 223 225 224 212 205 206 203 200 201 199 198 196 197 197 196 197 198 198
325 324 322 320 318 317 315 313 311 310 309 307 304 299 295 291 287 282 284 290 286 277 276 276 276 263 258 270 269 264 266 260 253 247 244 240 232 226 222 222 220 215 216 220 222 218 217 219 220 222 221 218 217 215 219 223 219 218 218 219 221 219 219 218 219 219 212 212 216 220 226 228 226 216 209 209 205 203 204 201 199 198 198 199 198 200 201 201
325 324 322 320 318 316 315 313 311 311 309 308 305 297 293 293 287 281 286 290 284 277 275 275 276 264 260 271 270 267 266 258 249 242 238 236 228 222 222 223 220 215 216 220 222 219 217 220 219 221 222 218 218 217 218 221 216 214 217 218 218 220 222 220 219 220 213 216 220 220 226 227 223 220 215 211 208 207 205 202 201 200 200 201 201 202 203 204
325 323 322 321 318 316 314 312 311 311 309 309 305 296 294 296 288 281 289 288 280 277 274 272 271 264 266 271 272 273 267 253 244 239 236 234 226 220 222 222 220 219 220 220 222 220 217 221 221 221 221 219 219 218 218 223 221 216 218 220 220 221 224 222 221 223 218 219 225 223 227 228 222 221 217 211 210 210 206 203 203 202 202 202 202 202 203 205
325 324 323 321 318 316 314 312 311 311 309 308 307 300 295 296 287 282 285 283 279 278 272 269 265 263 270 272 272 276 267 252 246 240 237 233 225 222 223 222 222 224 223 220 220 221 219 223 224 221 220 219 218 216 216 221 224 222 220 220 223 222 224 224 222 224 222 224 229 226 229 231 224 222 218 212 211 211 207 205 205 204 203 204 203 202 202 203
325 324 323 321 318 316 313 311 311 311 309 308 310 305 297 296 290 283 280 277 279 278 270 269 264 263 271 270 269 272 263 253 248 244 241 234 227 225 225 224 224 226 224 220 220 222 222 226 225 220 218 218 218 216 215 218 222 224 222 221 223 221 223 226 224 224 225 227 231 229 230 233 227 223 218 212 211 211 208 207 206 203 203 204 204 202 201 201
325 325 324 322 319 316 313 311 311 310 309 309 309 307 300 298 293 286 280 274 277 277 271 270 266 264 272 270 267 269 260 250 246 246 245 237 229 226 225 225 225 225 223 221 221 221 224 228 224 218 218 218 219 218 216 218 221 222 222 223 222 219 219 223 224 226 228 229 230 229 231 233 227 223 220 215 213 213 212 210 209 206 204 203 203 201 199 199
326 325 324 323 320 317 314 312 312 312 311 309 307 306 302 300 295 287 281 275 274 274 269 270 267 267 273 270 267 266 257 248 244 245 245 239 234 230 227 225 224 225 224 223 223 223 226 228 219 215 218 219 219 219 217 219 222 222 222 222 221 219 218 222 225 228 230 232 230 227 235 237 225 220 220 216 217 218 216 214 212 211 209 205 203 202 202 201
327 326 324 322 320 317 314 311 312 312 310 309 308 306 304 302 296 286 282 278 274 271 267 269 268 268 274 271 268 264 254 249 246 245 244 239 236 233 229 226 224 226 225 223 225 227 228 225 216 215 218 219 220 221 218 218 223 226 224 221 220 219 220 223 227 230 231 233 230 224 230 235 226 220 219 216 217 218 216 214 213 213 211 206 203 204 204 203
327 326 325 322 318 315 313 311 312 313 310 309 309 308 306 303 295 284 283 280 274 269 266 268 266 269 275 272 272 265 251 250 249 246 245 240 236 231 229 229 227 226 224 223 227 229 227 221 216 218 218 217 220 222 220 217 221 228 224 218 218 219 221 223 226 229 228 229 229 224 225 231 230 223 219 216 217 217 215 214 214 213 210 207 206 205 205 204
326 326 326 323 319 317 315 312 313 314 311 309 309 309 306 302 292 283 283 280 275 269 265 267 266 271 275 273 275 264 249 255 253 248 248 243 239 232 228 230 228 226 223 223 229 228 223 219 217 220 218 217 220 221 219 215 219 226 220 214 217 219 221 223 225 228 229 231 234 229 225 231 231 225 220 216 217 218 216 215 214 213 210 209 208 207 205 205
326 326 326 325 322 319 315 313 314 313 311 309 308 308 305 300 289 283 283 277 274 269 265 266 265 271 275 273 276 263 251 257 253 250 253 248 240 233 229 229 227 228 225 223 229 228 221 219 218 218 219 220 221 220 218 215 218 221 215 214 216 218 221 222 224 229 231 234 236 231 226 230 231 226 221 217 217 219 217 216 215 213 211 210 210 208 207 207
327 327 326 325 322 318 316 314 314 312 311 310 309 308 304 296 287 285 283 273 274 272 267 269 268 271 274 270 272 265 256 256 252 253 256 249 241 233 229 228 226 228 228 225 229 229 224 221 219 218 221 222 222 221 217 217 219 217 214 216 216 217 220 221 223 227 229 231 233 230 225 228 232 227 222 219 219 218 217 217 216 213 212 212 211 210 209 208
328 327 325 324 321 318 316 314 313 313 313 312 310 308 303 294 289 287 281 274 277 276 271 274 271 272 275 268 266 266 258 255 257 258 255 249 246 236 229 229 227 227 227 226 227 229 228 223 219 220 222 220 219 220 217 217 218 215 216 220 220 219 219 221 224 224 228 231 230 228 224 225 232 228 222 221 218 216 216 217 217 215 215 215 214 213 211 210
327 326 324 322 320 318 317 315 315 315 314 313 312 308 300 293 292 283 278 278 280 279 277 278 276 275 278 270 265 267 259 255 259 259 254 249 247 241 233 230 229 228 227 227 227 228 227 224 222 223 221 217 217 220 219 218 216 215 216 217 221 223 220 222 223 221 226 231 228 225 223 224 229 227 222 220 218 214 215 216 215 214 215 215 215 214 212 211
326 325 322 320 318 318 319 316 317 317 315 315 313 308 297 291 288 277 278 284 282 282 282 282 282 281 279 272 268 269 260 256 259 257 253 248 240 236 230 227 227 225 225 226 227 227 225 224 224 224 220 216 216 218 219 218 215 215 214 212 215 220 219 220 221 221 227 232 226 220 221 225 229 228 223 221 219 216 214 215 215 214 214 213 214 213 213 211
325 324 320 318 317 317 318 318 318 318 316 316 313 307 297 289 284 278 281 284 280 283 286 284 286 286 283 276 272 271 262 256 259 256 251 247 239 233 229 228 227 224 223 224 226 227 225 223 222 222 221 217 215 217 217 217 215 213 212 211 212 215 217 221 222 225 230 232 227 220 221 229 231 228 224 220 219 217 215 216 217 216 215 213 213 213 212 211
325 323 319 317 317 316 317 317 318 317 315 315 312 304 295 287 283 284 285 283 282 287 288 286 287 289 287 279 273 273 265 258 259 255 249 245 240 237 233 232 230 225 223 223 224 224 222 222 220 218 220 219 217 217 216 215 216 216 214 213 215 215 217 220 222 225 228 230 227 220 222 228 224 224 223 218 217 217 217 218 217 217 217 216 216 215 214 213
325 323 318 318 318 317 317 316 315 315 313 312 309 301 292 286 286 288 286 284 286 289 289 288 288 287 285 280 274 274 266 260 261 255 246 241 238 238 237 235 232 227 223 222 224 223 222 224 221 221 223 221 219 219 216 213 216 218 215 214 218 217 216 222 224 224 226 230 227 221 225 229 226 227 226 220 219 218 217 218 216 217 217 217 218 217 216 215
326 324 320 320 321 318 317 315 311 310 309 308 306 298 290 286 287 286 286 288 288 288 290 291 290 284 281 278 275 276 268 261 262 254 243 237 236 237 236 233 232 228 223 221 223 223 224 224 224 226 226 219 218 221 216 213 215 215 213 215 217 216 216 223 228 227 226 229 228 224 229 233 231 231 226 219 220 219 217 218 217 217 215 215 217 217 217 216
327 325 321 323 324 321 317 314 308 304 304 304 300 294 289 288 288 287 289 290 288 288 291 290 288 283 280 277 275 276 271 262 260 254 244 238 236 236 235 232 230 228 226 224 222 222 224 225 224 223 222 219 221 224 220 215 213 212 214 215 214 215 217 221 226 227 225 229 231 228 229 229 225 227 224 216 218 221 219 218 218 218 216 214 216 216 216 216
326 323 321 326 327 323 319 316 308 301 300 300 295 292 291 291 293 292 291 289 288 291 292 288 286 283 278 277 275 274 270 261 257 253 246 240 236 235 235 233 230 229 231 229 224 223 224 225 223 219 218 222 222 221 219 216 214 214 215 214 212 213 215 217 221 223 223 228 232 230 230 227 221 222 221 216 217 220 221 219 219 219 217 215 217 216 215 215
326 324 323 327 329 327 324 320 312 304 302 298 293 291 290 290 295 297 294 290 288 291 291 286 285 283 279 276 273 271 267 260 256 250 245 242 238 235 235 234 231 231 235 232 226 224 223 222 222 219 219 222 220 216 215 215 215 215 215 215 215 216 216 216 219 222 223 227 230 230 231 229 224 220 218 218 218 218 220 219 218 218 217 216 217 216 215 214
329 326 325 329 331 329 326 324 321 314 305 297 292 291 290 290 294 299 299 294 289 289 288 286 286 284 282 279 273 268 264 257 252 247 243 242 240 237 234 233 233 234 236 233 227 225 223 221 221 221 220 219 217 214 213 213 214 213 214 215 214 216 217 219 222 222 222 225 227 229 232 230 227 222 218 218 218 217 218 217 217 217 217 217 216 215 214 213
331 328 327 332 334 331 327 326 324 316 305 300 297 293 293 294 294 299 303 298 291 289 288 286 286 283 282 281 275 267 259 252 247 243 240 240 239 238 237 235 235 235 234 232 228 225 223 221 221 221 220 218 216 215 213 213 213 213 215 216 215 215 214 216 222 222 221 225 225 226 232 232 227 222 219 220 220 219 218 216 217 217 216 217 216 215 214 213
333 330 329 334 336 333 331 329 322 314 306 304 301 295 295 298 297 297 301 300 294 291 291 288 286 284 283 282 276 264 253 245 241 238 236 237 237 238 240 240 238 236 233 229 228 227 224 222 222 222 220 219 220 219 217 216 216 215 216 217 217 217 214 216 222 221 221 226 226 228 235 234 227 220 219 221 222 220 219 217 217 217 216 216 215 215 215 214
335 331 331 338 339 336 334 332 324 316 310 307 304 300 298 299 298 297 298 298 294 291 291 288 285 283 281 278 274 263 249 239 235 233 235 237 237 237 241 243 241 237 232 227 226 227 225 222 222 222 222 221 219 217 216 216 214 214 216 216 217 218 219 221 223 221 222 224 224 229 234 232 228 222 219 222 224 221 219 218 217 218 217 216 215 215 215 215
335 332 334 342 344 342 339 334 326 320 316 313 309 308 306 302 301 301 298 297 296 292 290 288 283 278 274 271 268 262 248 236 232 233 235 237 237 237 239 243 243 237 232 228 226 225 224 220 219 218 218 218 216 213 214 216 215 215 217 217 217 219 222 225 223 221 224 223 220 224 231 229 228 225 221 224 227 224 221 220 219 220 219 218 217 217 217 216
337 335 336 341 347 350 346 339 332 326 323 320 314 312 312 308 306 307 302 297 297 293 287 282 277 270 269 267 262 259 250 237 233 236 237 238 240 240 238 241 244 240 235 232 229 226 223 220 218 214 211 211 211 208 210 214 216 216 217 219 219 219 221 223 222 222 225 223 220 223 228 226 222 221 219 221 225 226 227 226 225 224 224 222 220 220 220 219
340 339 337 339 345 350 349 345 341 333 328 326 321 318 318 314 309 310 306 299 300 297 283 272 269 266 267 267 260 258 253 242 238 240 240 241 242 240 237 238 244 245 241 236 230 225 222 220 219 216 213 213 213 211 212 216 218 219 221 223 221 220 220 220 221 223 223 222 223 225 227 226 223 221 221 221 222 224 227 228 226 225 226 225 222 222 223 222
342 340 339 339 342 346 345 345 345 339 332 330 327 324 324 320 313 312 310 304 302 298 278 265 270 270 269 269 263 259 256 247 244 246 244 242 243 243 241 239 241 246 245 238 231 224 222 221 221 219 217 217 218 219 220 220 221 222 224 225 224 224 224 222 221 223 222 222 225 225 225 229 228 223 221 223 224 224 225 224 223 222 224 225 224 225 226 224
343 341 342 343 342 343 343 342 343 341 335 333 332 329 329 326 320 317 315 307 300 293 276 267 274 277 275 271 263 260 259 254 250 249 247 247 247 247 246 242 241 243 243 240 231 223 221 221 221 220 220 218 218 220 221 222 222 222 223 224 225 226 226 225 224 223 223 224 227 225 222 226 229 226 222 221 221 222 223 224 225 226 227 229 229 229 229 224
345 344 345 345 343 342 342 341 341 342 339 337 337 335 332 328 324 322 318 310 300 291 279 274 277 282 281 273 262 259 260 258 257 255 252 252 251 249 248 246 243 240 241 242 234 224 221 221 221 221 221 218 217 219 221 221 221 221 221 221 224 227 228 227 226 224 223 226 229 229 225 225 225 224 222 219 217 220 224 227 229 230 232 232 229 228 226 221
347 347 347 347 344 343 344 343 345 346 343 341 340 337 334 330 327 326 320 308 298 291 285 283 283 284 282 275 265 260 260 259 261 260 255 254 253 250 248 246 243 241 241 242 236 226 221 220 219 220 219 217 216 217 218 217 219 221 223 222 223 227 228 227 225 223 222 224 226 227 227 225 222 221 221 220 221 223 226 230 234 235 234 230 225 222 219 214
348 349 349 348 348 349 349 348 348 348 346 346 345 342 340 337 333 329 320 305 294 289 286 289 289 286 282 279 273 269 270 267 266 264 259 255 253 249 247 245 241 241 241 241 238 227 219 218 218 218 218 216 214 213 216 217 218 219 221 221 222 225 226 224 223 221 220 221 222 224 225 224 223 224 224 222 221 222 225 233 240 242 238 227 219 215 211 208
351 352 352 352 353 354 353 350 351 351 350 349 347 345 343 340 337 333 326 315 302 292 289 290 290 287 283 282 279 278 281 279 275 272 266 260 256 251 248 245 240 240 240 239 238 228 218 217 218 216 216 215 211 212 216 217 216 215 215 217 219 220 222 221 220 220 220 219 217 219 220 222 225 226 223 221 222 222 227 235 239 242 240 226 215 211 208 206